Location: Staunton
(38.1490°N, 79.0720°W)
Time: 14:47:38
(UTC-04:00)

ISS - Pass Details

Date: 17 July 2017
Orbit: 400 x 408 km, 51.6° (Epoch: 21 July)

Event Time Altitude Azimuth Distance (km) Brightness Sun altitude
Exits shadow 02:30:08 13° 348° (NNW) 1,261 -0.7 -28.6°
Drops below altitude 10° 02:31:29 10° 12° (NNE) 1,453 -0.1 -28.5°
Sets 02:34:22 0° 40° (NE) 2,316 1.1 -28.3°
